TimeCST,TemperatureF,Dew PointF,Humidity,Sea Level PressureIn,VisibilityMPH,Wind Direction,Wind SpeedMPH,Gust SpeedMPH,PrecipitationIn,Events,Conditions,WindDirDegrees,DateUTC
12:15 AM,50.9,32.4,49,30.03,10.0,SSE,11.5,-,N/A,,Clear,160,2012-11-19 06:15:00
12:35 AM,50.4,32.5,50,30.02,10.0,SSE,10.4,17.3,N/A,,Clear,160,2012-11-19 06:35:00
12:55 AM,50.0,32.5,51,30.02,10.0,SSE,12.7,-,N/A,,Clear,160,2012-11-19 06:55:00
1:15 AM,50.0,32.7,52,30.01,10.0,SSE,12.7,-,N/A,,Clear,160,2012-11-19 07:15:00
1:35 AM,49.3,32.9,53,30.01,10.0,South,10.4,-,N/A,,Clear,170,2012-11-19 07:35:00
1:55 AM,48.7,32.7,54,30.00,10.0,SSE,10.4,-,N/A,,Clear,160,2012-11-19 07:55:00
2:15 AM,48.7,32.9,54,30.01,10.0,South,10.4,-,N/A,,Clear,170,2012-11-19 08:15:00
2:35 AM,47.8,32.9,56,30.01,10.0,SSE,9.2,-,N/A,,Clear,160,2012-11-19 08:35:00
2:55 AM,46.9,32.9,58,30.01,10.0,SSE,6.9,-,N/A,,Clear,160,2012-11-19 08:55:00
3:15 AM,46.4,32.9,59,30.02,10.0,SSE,8.1,-,N/A,,Clear,160,2012-11-19 09:15:00
3:35 AM,45.5,32.9,61,30.02,10.0,SSE,6.9,-,N/A,,Clear,160,2012-11-19 09:35:00
3:55 AM,44.1,33.3,66,30.02,10.0,South,9.2,-,N/A,,Clear,170,2012-11-19 09:55:00
4:15 AM,44.2,33.6,66,30.02,10.0,South,8.1,-,N/A,,Clear,170,2012-11-19 10:15:00
4:35 AM,43.9,34.0,68,30.03,10.0,South,6.9,-,N/A,,Clear,170,2012-11-19 10:35:00
4:55 AM,45.0,35.1,68,30.02,10.0,South,9.2,-,N/A,,Clear,180,2012-11-19 10:55:00
5:15 AM,44.8,35.2,69,30.03,10.0,South,8.1,-,N/A,,Clear,180,2012-11-19 11:15:00
5:35 AM,44.1,35.4,72,30.03,10.0,South,8.1,-,N/A,,Clear,180,2012-11-19 11:35:00
5:55 AM,43.9,36.0,74,30.02,10.0,South,9.2,-,N/A,,Clear,180,2012-11-19 11:55:00
6:15 AM,43.7,36.5,76,30.02,10.0,South,8.1,-,N/A,,Clear,180,2012-11-19 12:15:00
6:35 AM,43.7,36.5,76,30.03,10.0,South,8.1,-,N/A,,Clear,190,2012-11-19 12:35:00
6:55 AM,42.3,36.0,78,30.03,10.0,South,8.1,-,N/A,,Clear,190,2012-11-19 12:55:00
7:15 AM,42.8,37.4,81,30.03,10.0,SSW,6.9,-,N/A,,Clear,200,2012-11-19 13:15:00
7:35 AM,41.9,36.1,80,30.04,10.0,South,5.8,-,N/A,,Clear,190,2012-11-19 13:35:00
7:55 AM,42.3,36.9,81,30.04,10.0,South,5.8,-,N/A,,Clear,190,2012-11-19 13:55:00
8:15 AM,44.2,37.9,79,30.04,10.0,South,9.2,-,N/A,,Clear,190,2012-11-19 14:15:00
8:35 AM,45.9,38.8,76,30.04,10.0,SSW,8.1,-,N/A,,Clear,200,2012-11-19 14:35:00
8:55 AM,48.6,39.7,72,30.04,10.0,SSW,9.2,-,N/A,,Clear,210,2012-11-19 14:55:00
9:15 AM,50.2,40.1,68,30.05,10.0,SW,11.5,-,N/A,,Clear,230,2012-11-19 15:15:00
9:35 AM,51.6,39.6,63,30.06,10.0,WSW,12.7,16.1,N/A,,Clear,240,2012-11-19 15:35:00
9:55 AM,51.8,38.5,60,30.07,10.0,WSW,13.8,-,N/A,,Clear,240,2012-11-19 15:55:00
10:15 AM,53.2,36.9,54,30.08,10.0,WSW,10.4,-,N/A,,Clear,250,2012-11-19 16:15:00
10:35 AM,54.5,35.4,49,30.08,10.0,WSW,11.5,-,N/A,,Clear,240,2012-11-19 16:35:00
10:55 AM,55.4,34.9,46,30.08,10.0,WSW,9.2,-,N/A,,Clear,250,2012-11-19 16:55:00
11:15 AM,56.8,34.5,43,30.06,10.0,WSW,9.2,-,N/A,,Clear,240,2012-11-19 17:15:00
11:35 AM,58.3,33.8,40,30.05,10.0,West,9.2,-,N/A,,Clear,260,2012-11-19 17:35:00
11:55 AM,59.5,33.8,38,30.05,10.0,West,10.4,-,N/A,,Clear,260,2012-11-19 17:55:00
12:15 PM,61.5,33.6,35,30.05,10.0,West,12.7,-,N/A,,Clear,270,2012-11-19 18:15:00
12:35 PM,61.0,34.0,36,30.05,10.0,West,13.8,-,N/A,,Clear,280,2012-11-19 18:35:00
12:55 PM,61.2,33.4,35,30.05,10.0,West,13.8,-,N/A,,Clear,270,2012-11-19 18:55:00
1:15 PM,61.2,33.6,36,30.05,10.0,West,12.7,16.1,N/A,,Clear,280,2012-11-19 19:15:00
1:35 PM,62.6,33.1,33,30.05,10.0,WNW,11.5,-,N/A,,Clear,290,2012-11-19 19:35:00
1:55 PM,63.3,33.4,33,30.04,10.0,WNW,8.1,-,N/A,,Clear,290,2012-11-19 19:55:00
2:15 PM,64.8,33.4,31,30.04,10.0,West,9.2,-,N/A,,Clear,280,2012-11-19 20:15:00
2:35 PM,66.0,33.1,29,30.04,10.0,West,8.1,-,N/A,,Clear,270,2012-11-19 20:35:00
2:55 PM,66.2,32.7,29,30.04,10.0,NW,10.4,-,N/A,,Clear,320,2012-11-19 20:55:00
3:15 PM,64.8,32.7,30,30.05,10.0,NW,12.7,-,N/A,,Clear,320,2012-11-19 21:15:00
3:35 PM,64.6,33.6,32,30.05,10.0,WNW,6.9,-,N/A,,Clear,300,2012-11-19 21:35:00
3:55 PM,64.4,33.8,32,30.05,10.0,NW,9.2,-,N/A,,Clear,320,2012-11-19 21:55:00
4:15 PM,63.0,34.5,35,30.05,10.0,NW,6.9,-,N/A,,Clear,320,2012-11-19 22:15:00
4:35 PM,60.4,35.4,39,30.06,10.0,NW,5.8,-,N/A,,Clear,310,2012-11-19 22:35:00
4:55 PM,59.0,34.9,40,30.07,10.0,Calm,Calm,-,N/A,,Clear,0,2012-11-19 22:55:00
5:15 PM,54.5,34.7,47,30.07,10.0,Calm,Calm,-,N/A,,Clear,0,2012-11-19 23:15:00
5:35 PM,54.0,35.1,49,30.07,10.0,Calm,Calm,-,N/A,,Clear,0,2012-11-19 23:35:00
5:55 PM,49.5,33.3,54,30.08,10.0,Calm,Calm,-,N/A,,Clear,0,2012-11-19 23:55:00
6:15 PM,49.5,33.6,54,30.09,7.0,Calm,Calm,-,N/A,,Clear,0,2012-11-20 00:15:00
6:35 PM,48.4,34.2,58,30.10,7.0,Calm,Calm,-,N/A,,Clear,0,2012-11-20 00:35:00
6:55 PM,46.2,33.1,60,30.10,5.0,Calm,Calm,-,N/A,,Haze,0,2012-11-20 00:55:00
7:15 PM,46.8,34.0,61,30.10,10.0,Calm,Calm,-,N/A,,Clear,0,2012-11-20 01:15:00
7:35 PM,46.8,33.8,61,30.11,10.0,Calm,Calm,-,N/A,,Clear,0,2012-11-20 01:35:00
7:55 PM,42.6,32.2,67,30.12,10.0,Calm,Calm,-,N/A,,Clear,0,2012-11-20 01:55:00
8:15 PM,44.1,32.9,65,30.12,10.0,NW,4.6,-,N/A,,Clear,310,2012-11-20 02:15:00
8:35 PM,42.1,32.0,67,30.12,10.0,NW,3.5,-,N/A,,Clear,320,2012-11-20 02:35:00
9:15 PM,40.3,31.8,72,30.13,10.0,WNW,3.5,-,N/A,,Clear,290,2012-11-20 03:15:00
9:35 PM,38.8,31.8,76,30.13,10.0,West,4.6,-,N/A,,Clear,280,2012-11-20 03:35:00
9:55 PM,36.5,31.1,81,30.13,10.0,Calm,Calm,-,N/A,,Clear,0,2012-11-20 03:55:00
10:15 PM,37.2,31.6,80,30.14,10.0,NW,3.5,-,N/A,,Clear,310,2012-11-20 04:15:00
10:35 PM,38.3,32.0,78,30.14,10.0,Calm,Calm,-,N/A,,Clear,0,2012-11-20 04:35:00
10:55 PM,37.2,31.5,80,30.15,10.0,Calm,Calm,-,N/A,,Clear,0,2012-11-20 04:55:00
11:15 PM,38.8,31.8,76,30.15,10.0,Calm,Calm,-,N/A,,Clear,0,2012-11-20 05:15:00
11:35 PM,36.0,30.0,79,30.15,10.0,SW,4.6,-,N/A,,Clear,230,2012-11-20 05:35:00
11:55 PM,34.7,30.0,83,30.15,10.0,West,5.8,-,N/A,,Clear,270,2012-11-20 05:55:00